Inquirer Daily News

Weather

Get conditions and forecasts for any City, State, ZIP code or Country:  
Trenton, NJ
on Saturday, December 15, 2012

Saturday
Previous Day Next Day
Daily Summary
 ActualAverageRecord
Temperature
Mean Temperature °F 35°F  
Max Temperature 47°F 43°F 66°F (1971)
Min Temperature 29°F 28°F 10°F (1914)
Degree Days
Heating Degree Days 27 30  
Month to date heating degree days 322 409  
Since 1 July heating degree days 1329 1385  
Cooling Degree Days 0 0  
Month to date cooling degree days 0 0  
Year to date cooling degree days 1234 965  
Moisture
Dew Point 30°F   
Average Humidity 73    
Maximum Humidity 85    
Minimum Humidity 60    
Precipitation
Precipitation 0.00 in 0.13 in 1.20 in (1981)
Month to date precipitation 0.83 2.05  
Year to date precipitation 34.06 44.79  
Wind
Wind Speed 4 mph   
Max Wind Speed 9 mph   
Max Gust Speed 12 mph   
Visibility 10 miles   
Events     

Key: T is trace of precipitation, MM is missing value
Source: NWS Daily Summary
Time(EST)TemperatureDew PointHumidity Pressure Visibility Wind DirectionWind SpeedGust SpeedPrecipitationEvents Conditions
12:53 AM 30.9°F 25.0°F 79% 30.24 in 9.0 miles NNW 6.9 mph - N/A   Clear
1:53 AM 30.0°F 24.1°F 79% 30.25 in 9.0 miles NNW 4.6 mph - N/A   Clear
2:53 AM 30.9°F 25.0°F 79% 30.25 in 9.0 miles NNW 4.6 mph - N/A   Clear
3:53 AM 30.9°F 24.1°F 76% 30.24 in 10.0 miles North 5.8 mph - N/A   Clear
4:53 AM 30.9°F 24.1°F 76% 30.25 in 10.0 miles Calm Calm - N/A   Clear
5:53 AM 28.9°F 24.1°F 82% 30.25 in 9.0 miles Calm Calm - N/A   Clear
6:53 AM 28.9°F 24.1°F 82% 30.27 in 9.0 miles North 5.8 mph - N/A   Clear
7:53 AM 30.0°F 26.1°F 85% 30.29 in 7.0 miles Calm Calm - N/A   Clear
9:53 AM 41.0°F 30.0°F 65% 30.31 in 9.0 miles NNE 4.6 mph - N/A   Clear
10:53 AM 43.0°F 30.0°F 60% 30.30 in 10.0 miles Calm Calm - N/A   Clear
11:53 AM 46.0°F 33.1°F 61% 30.27 in 9.0 miles SE 4.6 mph - N/A   Clear
12:53 PM 46.0°F 33.1°F 61% 30.24 in 9.0 miles SSE 5.8 mph - N/A   Clear
1:53 PM 46.0°F 34.0°F 63% 30.23 in 9.0 miles SSE 5.8 mph - N/A   Clear
2:53 PM 46.9°F 34.0°F 61% 30.22 in 9.0 miles SE 3.5 mph - N/A   Clear
4:53 PM 44.1°F 33.1°F 65% 30.20 in 10.0 miles ESE 5.8 mph - N/A   Clear
5:53 PM 43.0°F 35.1°F 74% 30.21 in 10.0 miles SE 5.8 mph - N/A   Clear
6:53 PM 42.1°F 34.0°F 73% 30.22 in 10.0 miles SSE 6.9 mph - N/A   Mostly Cloudy
7:39 PM 42.8°F 33.8°F 70% 30.23 in 10.0 miles SE 5.8 mph - N/A   Partly Cloudy
7:53 PM 42.1°F 33.1°F 70% 30.20 in 10.0 miles ESE 6.9 mph - N/A   Partly Cloudy
8:53 PM 41.0°F 33.1°F 73% 30.22 in 10.0 miles Calm Calm - N/A   Overcast
9:05 PM 41.0°F 33.8°F 76% 30.23 in 10.0 miles ENE 5.8 mph - N/A   Overcast
9:42 PM 41.0°F 33.8°F 76% 30.22 in 10.0 miles SE 4.6 mph - N/A   Mostly Cloudy
9:53 PM 39.9°F 33.1°F 77% 30.20 in 10.0 miles SE 5.8 mph - N/A   Mostly Cloudy
10:53 PM 42.1°F 34.0°F 73% 30.19 in 10.0 miles SSE 4.6 mph - N/A   Mostly Cloudy
11:53 PM 39.9°F 34.0°F 79% 30.15 in 10.0 miles East 5.8 mph - N/A   Overcast
Astronomy
Sunrise:07:15 AM (EST) Moon Rise:09:05 AM (EST)12/15
Sunset:04:34 PM (EST) Moon Set:07:35 PM (EST)12/15
Moon Phase
Dec. 15 Dec. 20 Dec. 28 Jan. 04 Jan. 11

Copyright © 2014 The Weather Underground, Inc.